Wind_Speed
4 4 4 3 3 3 3 5 5 5 6 6 6 5 4 3 4 1 3 2 3 6 6 6 7 6 7 10 12 12 12 12 12 13 14 14 14 14 14 14 12 11 10 8 4 2 5 8 8 9 13 14 13 11 11 13 15 16 18 19 17 17 19 20 22 23 25 26 26 26 25 25 24 23 22 21 19 19 20 20 20 20 20 19 18 18 18
4 3 3 4 4 4 3 3 4 4 4 4 3 2 1 1 2 4 4 3 4 5 5 7 7 6 8 12 13 14 13 12 13 15 16 17 17 17 17 16 15 13 12 11 9 6 3 3 5 6 11 15 17 17 17 19 19 17 17 18 17 17 17 18 20 22 25 26 27 27 26 25 25 26 26 23 20 18 19 19 19 19 19 19 19 18 18
5 3 3 4 5 5 5 4 3 3 1 1 1 2 3 3 3 4 5 6 5 4 6 7 8 8 9 11 13 14 12 10 13 16 18 18 18 19 18 16 16 16 15 14 12 11 10 6 1 3 6 11 16 19 20 23 23 20 18 17 17 18 18 18 18 21 24 25 25 25 25 25 25 25 26 24 21 20 19 19 20 20 20 20 20 19 18
3 3 3 5 5 6 8 7 6 5 4 2 1 2 1 2 1 4 5 4 4 5 5 6 8 10 9 10 11 10 10 9 13 17 20 18 18 19 19 16 16 17 18 17 15 13 12 10 8 3 1 5 10 13 15 16 17 17 17 17 18 19 20 19 19 21 23 24 24 25 26 26 26 26 25 24 22 21 20 20 21 20 20 20 20 20 19
1 3 2 4 5 7 7 4 4 4 3 2 1 2 1 1 0 2 3 1 5 6 6 6 7 7 6 7 8 9 9 9 14 17 19 18 18 18 18 18 17 16 18 18 17 15 13 12 12 9 5 2 4 7 9 11 12 13 13 15 17 19 20 20 20 21 22 22 24 26 26 26 27 28 28 26 24 23 22 22 22 20 19 20 20 19 19
1 2 2 5 6 6 2 2 0 1 2 3 3 1 1 2 1 2 3 6 6 6 5 6 7 7 3 4 5 6 8 9 13 16 17 16 16 16 17 18 17 14 15 18 18 17 15 14 14 13 10 6 3 2 3 5 7 8 9 10 12 14 17 18 19 21 22 22 23 24 25 26 28 28 29 29 27 25 23 22 22 20 20 20 20 20 21
2 1 3 7 5 1 2 3 1 2 2 3 3 1 2 2 2 1 5 6 5 6 7 7 10 10 7 6 7 6 8 10 12 14 15 15 15 15 16 18 17 15 15 16 18 20 18 17 16 15 14 12 8 5 3 1 1 2 3 4 7 9 12 15 17 19 21 22 23 24 25 26 27 28 29 28 27 27 25 23 24 24 23 23 22 22 23
3 2 5 5 2 1 3 5 4 4 4 4 4 4 5 4 3 2 4 5 5 6 8 9 10 10 8 9 10 7 8 10 10 12 14 14 13 14 15 15 16 16 15 14 17 21 22 20 19 17 17 16 14 11 9 7 5 3 1 2 3 5 6 9 13 15 16 18 19 21 22 23 24 26 28 28 28 28 26 24 24 25 24 24 23 23 23
3 4 4 3 4 3 4 5 5 4 4 3 3 3 4 6 5 4 4 6 6 6 7 9 10 8 8 8 8 6 7 10 10 10 11 11 12 13 13 13 15 15 15 14 14 18 21 22 20 18 17 18 18 18 17 15 13 11 9 9 8 7 6 3 3 7 10 12 15 18 20 22 22 24 27 28 28 28 25 24 24 24 24 23 22 22 22
3 5 5 4 5 3 2 3 4 4 2 2 1 3 3 7 7 6 5 6 8 7 7 9 9 7 5 4 4 6 8 9 8 8 9 10 11 12 11 12 13 14 15 15 14 17 21 22 21 19 19 20 21 22 21 20 19 18 17 16 14 12 12 11 9 5 2 4 6 9 14 17 19 25 29 29 28 25 22 21 22 23 23 21 17 18 19
4 5 5 4 3 1 3 3 5 6 5 4 3 3 2 6 8 8 7 8 9 10 9 9 9 5 3 2 5 7 8 9 8 7 8 9 10 11 11 11 12 13 15 16 15 17 19 20 20 20 20 20 21 22 21 21 23 24 22 20 18 15 14 13 12 11 8 6 5 2 3 5 7 13 17 19 20 20 18 18 16 16 18 17 14 14 15
4 5 5 4 2 2 5 4 6 7 6 5 5 4 1 6 9 9 8 8 9 10 10 10 8 4 1 4 9 11 9 9 8 8 8 9 9 10 10 10 11 12 14 15 15 17 18 17 17 18 20 22 23 24 25 25 26 26 24 22 20 18 16 15 13 12 11 9 8 6 4 4 2 3 4 6 9 10 11 12 11 11 13 12 10 10 10
4 4 5 4 1 4 6 6 6 7 6 5 5 2 2 6 9 8 8 8 8 9 10 8 5 1 5 10 15 14 11 10 9 9 9 9 9 9 9 10 10 11 13 14 14 16 17 16 15 16 18 21 23 25 26 26 26 24 22 21 20 19 18 17 15 14 14 12 10 8 7 6 5 2 1 3 6 7 5 4 5 6 9 10 9 9 10
4 3 5 4 1 3 6 7 7 6 5 4 1 2 4 7 8 7 6 7 7 9 8 6 4 5 9 13 15 13 10 10 10 9 8 9 9 9 10 11 11 11 13 14 14 15 16 15 14 14 16 20 21 22 24 24 23 22 20 20 19 19 19 18 17 16 15 14 13 12 10 7 6 7 6 6 7 8 7 5 4 4 6 8 10 11 12
4 3 5 5 2 3 9 10 7 5 4 0 3 4 5 6 7 6 6 6 7 8 8 6 7 9 11 12 13 11 10 9 9 9 9 9 10 10 10 10 11 11 13 14 15 15 16 16 15 14 15 17 18 20 21 21 20 19 19 19 19 19 19 19 18 17 15 14 14 13 13 12 10 10 10 9 8 8 7 7 5 3 3 5 8 10 11
4 5 4 2 2 7 13 9 2 3 3 5 5 5 5 6 6 5 6 6 7 8 9 9 10 12 12 12 12 11 10 9 9 9 10 10 10 11 12 12 12 12 13 14 15 16 16 15 15 15 15 16 16 17 19 18 16 17 17 17 18 18 19 19 19 18 16 15 14 13 13 13 12 12 12 11 9 8 6 5 4 5 7 9 10 9 9
3 3 2 3 5 9 12 5 3 4 6 6 4 4 5 5 5 4 5 7 8 8 9 11 12 13 14 13 12 11 10 10 10 10 10 10 10 11 13 15 15 15 15 15 15 17 17 16 14 14 15 15 15 17 17 15 14 14 14 14 15 16 17 18 18 17 17 16 15 14 13 13 13 13 12 11 11 10 7 5 4 5 6 7 7 7 8
2 1 3 4 5 8 10 5 3 5 6 5 5 5 5 6 6 5 6 7 9 10 11 13 14 15 15 13 11 11 11 11 11 11 10 10 10 10 12 14 14 13 14 14 15 16 16 16 15 15 14 14 14 15 15 13 12 12 13 13 13 14 15 16 16 17 17 17 16 14 13 13 12 13 13 12 12 11 10 9 8 7 6 5 3 2 3
3 3 4 6 6 8 10 7 5 6 6 6 5 5 6 7 7 7 7 9 11 11 12 14 16 16 15 14 12 12 12 12 11 11 10 10 10 10 10 12 11 11 11 13 13 14 15 15 15 15 14 14 13 13 13 11 10 11 13 12 13 13 13 14 14 15 16 16 16 16 15 14 12 10 10 11 11 11 11 11 12 11 9 8 8 8 7
3 2 6 7 6 7 8 8 8 9 8 7 7 6 8 9 8 9 9 10 11 12 12 14 16 16 14 13 13 13 12 12 11 11 10 11 10 9 9 10 10 10 10 10 10 11 12 13 13 13 14 13 12 11 11 10 10 11 12 12 12 12 12 12 13 14 14 15 16 16 16 15 14 13 13 11 10 10 10 11 12 11 10 9 9 10 9
3 3 7 8 7 7 9 9 9 10 10 9 9 9 10 11 10 11 11 10 11 12 13 15 16 15 13 13 13 14 14 13 12 11 10 10 9 9 8 8 8 8 9 9 9 9 10 11 11 12 12 12 11 11 10 10 10 10 11 12 11 11 11 11 11 12 12 13 14 14 14 14 14 14 14 13 13 12 12 11 10 9 8 7 6 6 6
5 4 10 12 6 5 11 13 11 12 11 11 11 11 11 12 11 11 12 11 11 12 13 14 14 13 13 13 13 14 14 13 12 11 10 9 8 8 7 7 6 6 7 8 8 8 10 10 10 10 10 10 10 10 9 9 9 10 11 11 10 9 9 9 9 9 9 9 10 11 11 11 13 13 13 13 13 13 12 12 10 8 7 5 3 2 1
4 4 15 18 7 4 13 17 14 13 13 12 13 13 12 12 12 11 12 12 12 12 13 12 12 12 12 13 13 13 14 13 12 10 8 7 7 7 6 5 5 4 5 6 7 7 8 9 9 9 9 8 8 8 8 9 9 9 9 9 8 8 8 8 9 9 7 7 9 9 8 9 10 11 11 11 11 11 12 12 11 10 8 7 6 5 4
2 4 15 17 7 3 14 19 17 15 14 12 13 14 13 13 13 12 12 12 12 13 13 12 11 12 12 13 12 12 13 12 11 9 7 7 7 7 6 5 4 3 4 5 5 6 6 7 8 8 8 8 9 8 8 8 8 7 8 8 8 8 8 8 9 9 8 8 8 7 7 7 7 7 7 8 8 9 10 10 11 10 9 9 8 8 8
2 6 13 13 6 7 15 19 17 16 15 13 13 14 13 14 13 12 12 13 13 14 14 13 12 12 12 13 12 12 12 12 11 10 9 8 8 7 5 4 4 3 2 3 4 4 5 6 7 7 7 8 9 9 9 9 8 7 7 7 7 7 7 7 8 8 8 8 7 6 6 5 4 4 4 3 4 6 7 8 9 9 9 8 8 8 7
5 10 14 13 8 11 17 18 17 16 15 13 14 14 14 14 14 13 13 13 13 14 14 14 13 13 13 13 12 12 12 12 12 12 11 9 8 7 5 5 3 2 1 2 3 4 4 5 6 5 5 6 7 8 8 9 9 9 9 8 7 7 6 6 6 6 6 6 6 6 5 4 3 3 2 1 1 2 3 4 5 6 7 7 6 5 5
8 13 17 14 11 13 17 17 18 18 17 15 15 15 15 15 14 13 12 12 13 13 13 13 14 14 14 14 13 13 13 13 13 13 11 9 8 7 6 5 3 1 1 2 3 4 5 5 5 4 4 5 5 6 6 6 7 8 9 10 9 9 8 8 6 6 5 4 4 4 3 3 3 2 1 1 1 1 1 1 1 2 3 4 5 4 4
11 12 14 12 12 15 17 16 18 20 18 15 16 16 16 15 14 13 13 13 12 12 12 13 13 14 14 14 14 14 13 13 13 11 10 8 8 7 6 4 3 2 3 3 4 4 5 5 4 4 5 7 7 7 7 7 6 6 7 7 7 7 8 9 8 7 6 5 4 3 2 2 2 1 1 1 1 1 1 0 0 0 1 2 4 5 4
13 13 12 10 10 16 17 15 18 21 19 16 17 17 16 16 15 14 14 14 13 12 13 12 12 13 13 14 15 14 14 13 12 11 10 8 7 6 5 4 4 4 4 3 4 4 4 5 4 4 5 8 9 9 9 9 7 6 6 6 4 4 5 8 9 9 8 7 6 4 3 2 2 1 1 1 2 3 2 2 2 2 2 3 4 6 6
15 15 14 10 10 15 19 19 20 22 20 18 18 17 16 16 15 14 14 14 13 12 13 12 12 12 12 13 14 13 13 12 11 10 9 8 7 6 5 5 4 4 3 2 3 3 3 4 4 3 5 7 7 7 8 8 7 7 7 7 5 5 6 8 10 10 8 7 7 6 4 3 2 2 2 3 4 4 3 4 3 3 3 3 2 4 5
17 17 17 13 11 14 18 20 21 22 21 20 19 18 17 16 15 15 15 14 13 13 13 13 13 12 12 12 11 11 11 10 10 9 9 8 7 6 5 4 4 4 3 1 1 3 4 4 4 5 8 10 9 8 9 8 8 7 7 7 7 8 9 10 10 9 7 6 6 6 5 4 3 3 3 4 4 5 5 5 5 4 4 4 4 4 4
16 16 15 13 11 13 16 19 21 22 22 21 20 19 18 17 16 16 16 15 14 14 14 14 14 13 12 12 11 11 11 11 10 10 9 8 7 6 5 4 4 4 4 3 3 3 4 4 6 8 11 12 12 10 10 9 9 9 8 7 7 9 11 11 9 8 7 7 7 7 6 5 5 5 4 5 5 5 5 5 5 5 5 4 5 5 4
16 15 14 14 14 14 16 19 21 23 23 22 21 19 18 17 16 16 16 15 15 15 15 14 14 13 12 12 12 12 12 11 11 10 10 9 8 7 6 6 5 5 5 5 4 4 5 6 8 10 12 13 13 12 10 10 10 10 9 9 9 9 10 11 10 9 8 8 8 8 8 7 6 5 5 6 5 5 6 5 5 5 5 5 6 6 5
17 18 19 20 20 20 20 21 22 23 23 22 20 19 18 17 16 15 16 15 15 15 15 14 14 13 13 12 12 11 11 11 10 10 11 11 10 10 9 8 7 7 7 6 6 6 7 9 11 12 14 15 15 13 11 10 10 10 9 10 10 9 9 10 10 10 9 9 10 10 10 9 8 7 7 7 6 6 6 6 6 6 5 6 7 7 6
17 17 19 21 21 21 21 23 23 24 24 23 21 19 19 17 16 16 16 16 15 14 14 14 13 13 12 12 11 11 11 10 10 10 11 11 11 11 10 9 8 7 7 8 9 10 10 13 15 16 16 16 15 13 11 10 10 10 10 10 10 10 10 10 10 10 10 11 11 11 11 10 9 9 10 9 9 8 8 8 7 7 7 7 7 7 7
15 14 15 17 18 17 18 20 21 23 25 25 23 21 20 19 17 17 17 15 14 14 14 14 13 12 12 12 11 10 10 10 10 10 11 12 12 11 10 8 8 7 6 8 10 11 12 15 17 18 17 16 14 12 11 11 10 10 10 10 9 9 10 10 10 10 11 11 12 13 12 12 13 13 13 12 11 10 10 10 9 9 8 7 6 6 6
16 14 14 16 17 16 16 17 18 21 25 26 25 24 23 20 18 17 16 15 14 15 15 14 13 13 12 12 11 10 10 10 10 11 12 13 12 11 10 9 8 7 7 8 11 13 15 17 18 17 15 13 11 11 11 12 12 11 11 10 9 10 10 10 10 10 10 11 12 13 13 14 15 15 14 14 13 12 11 11 10 10 9 7 7 6 6
18 16 15 17 17 16 15 16 17 19 22 25 26 25 24 22 19 18 17 17 16 16 15 14 13 12 12 12 11 12 12 12 12 12 13 12 11 9 8 8 7 8 9 12 14 17 18 16 14 11 9 8 8 9 10 10 10 10 10 10 10 10 11 11 10 11 11 11 12 13 13 14 15 15 14 13 13 13 12 11 11 10 9 8 8 7 7
21 19 17 18 19 17 16 17 18 18 21 24 26 26 24 23 21 19 18 17 17 16 15 14 13 12 12 13 12 12 13 12 12 12 11 11 10 9 9 9 11 13 16 17 16 15 13 11 8 7 5 5 5 6 6 6 7 7 8 8 9 9 10 10 11 11 12 12 13 13 14 14 15 15 14 13 13 12 11 12 12 12 10 9 9 9 8
23 23 21 22 21 19 17 17 18 19 20 22 25 25 24 23 21 19 18 18 17 15 14 14 13 13 13 12 12 12 13 13 12 11 11 11 11 10 10 11 13 14 15 13 10 8 7 7 6 5 4 4 4 4 5 5 5 5 5 7 7 8 8 9 10 11 11 11 12 14 14 14 15 15 15 14 13 12 11 11 12 12 11 10 9 10 9
24 25 25 24 23 21 19 18 18 20 20 20 21 22 23 22 20 19 18 17 16 15 14 13 13 13 12 12 12 13 13 13 13 13 12 11 10 9 8 9 11 9 7 6 6 6 6 7 5 4 3 3 4 5 5 5 4 4 4 5 6 6 7 8 9 9 10 11 11 12 12 13 13 14 15 14 13 12 12 12 12 12 11 11 11 11 10
24 26 26 26 25 24 22 20 19 20 21 21 20 20 21 21 19 18 17 16 15 15 15 14 13 12 12 12 13 14 14 13 14 15 13 11 9 7 6 9 12 10 5 4 5 6 5 4 4 3 3 3 5 6 6 4 2 3 4 4 4 5 6 7 7 8 9 10 10 10 11 12 12 13 13 12 11 10 11 12 13 12 12 12 12 11 11
24 26 27 28 28 26 25 22 20 19 20 21 20 20 20 20 19 17 16 16 15 15 15 14 12 11 12 13 13 13 13 14 14 13 10 8 8 8 8 7 9 9 7 4 4 4 3 3 4 7 6 5 4 5 4 3 2 3 3 4 4 4 5 6 6 6 7 8 8 8 9 9 10 11 11 11 10 10 10 12 12 12 12 12 13 13 12
24 26 27 29 29 28 27 25 22 21 20 21 21 21 20 20 19 17 16 16 16 15 14 12 11 11 12 12 11 11 12 12 11 9 7 5 6 8 10 8 6 7 7 6 3 2 3 5 7 8 6 5 4 3 2 2 3 4 4 4 4 5 5 5 5 5 5 6 6 7 7 7 8 8 9 9 9 9 8 9 9 9 10 12 13 13 11
24 25 27 29 29 29 28 27 25 23 22 22 22 21 20 20 19 18 17 16 16 15 13 12 11 12 12 12 11 10 9 8 7 7 6 5 5 7 8 7 5 5 6 5 3 3 5 7 8 6 4 4 3 2 1 1 3 3 3 4 4 5 5 5 4 4 5 5 5 5 6 6 7 7 7 7 7 7 7 8 8 9 9 11 11 11 11
24 25 27 28 29 29 29 28 26 24 23 23 23 23 21 20 20 19 18 17 16 14 13 12 12 12 11 12 11 10 8 6 6 7 6 6 8 9 8 7 7 6 5 3 2 2 4 6 5 4 4 4 3 1 1 2 2 2 3 4 4 4 4 4 3 3 4 4 3 4 4 4 5 6 6 5 6 7 8 10 11 11 11 12 12 12 12
25 26 27 28 28 29 29 28 27 26 25 25 25 25 23 22 21 20 19 17 15 14 13 12 12 11 11 11 11 9 7 6 6 5 5 6 9 10 9 8 8 7 4 3 4 4 4 4 3 3 3 3 2 1 1 2 2 2 3 3 3 2 2 2 2 2 3 4 4 4 4 4 3 4 4 3 4 5 6 8 9 9 10 10 11 11 11
26 27 27 28 28 29 29 29 29 28 27 27 26 25 25 24 22 20 18 17 15 13 12 11 11 10 11 10 9 8 8 7 6 6 6 6 6 6 6 5 5 4 3 3 5 4 3 3 3 3 2 3 2 1 1 2 2 2 2 2 2 2 2 2 2 3 4 4 4 4 4 4 4 3 3 3 3 3 4 6 7 7 7 8 9 10 11
25 26 28 28 28 29 30 30 31 30 29 27 26 25 25 24 22 20 18 16 14 12 11 11 11 11 10 10 9 8 8 7 7 8 8 8 6 5 5 4 3 3 3 3 3 3 3 3 3 3 3 3 2 1 2 2 2 1 1 1 1 1 2 3 3 3 4 4 5 4 4 4 4 4 3 2 3 3 3 4 5 6 6 6 7 8 8
25 27 29 29 30 30 31 32 32 31 30 28 27 25 24 22 21 19 17 15 13 11 11 11 11 10 10 10 9 9 8 8 9 9 9 8 7 6 5 3 3 4 5 4 3 2 3 3 2 2 3 3 2 2 3 2 1 1 2 1 1 2 4 5 4 4 4 4 4 4 5 5 6 6 5 4 4 4 4 3 4 6 7 6 5 5 6
26 28 29 30 31 31 32 32 32 31 29 27 26 24 22 20 19 17 16 15 14 13 12 12 11 11 11 10 10 10 9 10 10 10 9 8 7 7 6 5 5 5 5 4 2 1 1 2 2 2 3 3 1 2 2 2 2 2 2 2 2 2 4 4 4 4 5 6 5 4 5 6 6 6 6 6 5 5 5 5 5 6 6 6 6 7 7
23 26 28 30 31 31 31 30 30 29 28 26 24 22 21 19 17 16 16 15 14 13 13 13 12 12 12 12 11 11 11 11 11 10 9 9 8 6 5 5 5 4 3 3 2 1 1 1 1 1 2 3 2 1 1 2 2 2 1 1 2 2 2 2 2 3 5 6 5 5 6 6 6 6 6 6 6 6 6 6 6 6 6 6 6 7 8
Wind_Direction
268 293 297 285 284 284 284 281 279 286 284 269 257 240 230 256 263 223 58 42 155 122 93 66 46 34 36 36 31 26 26 34 43 40 37 48 61 62 61 62 63 63 65 71 92 166 214 223 222 210 205 209 221 234 247 258 259 251 242 239 241 246 246 245 242 240 240 241 244 246 246 245 246 245 241 237 234 234 233 232 231 230 228 227 227 225 224
241 256 273 257 256 258 261 281 289 291 303 303 281 245 200 167 154 140 132 133 115 84 59 57 53 42 45 43 28 15 18 36 46 45 42 43 50 55 55 55 58 57 59 66 75 85 114 208 226 226 221 223 232 242 248 254 259 260 253 247 244 245 243 242 244 245 244 244 248 249 247 247 249 250 247 243 239 237 237 235 232 230 228 227 226 226 225
217 210 255 247 245 252 246 243 252 248 235 106 121 124 125 146 156 157 171 165 136 87 53 61 60 49 48 47 30 7 2 29 51 58 55 44 42 50 51 50 53 55 58 61 61 62 65 68 95 231 235 230 233 239 246 252 255 256 254 251 248 245 242 239 242 247 247 247 250 249 245 245 247 249 249 247 244 241 239 238 234 229 228 229 228 228 228
197 161 244 251 242 251 247 236 228 224 220 213 140 116 121 286 205 181 205 196 146 114 89 71 54 45 41 43 32 354 344 33 62 70 66 53 45 49 49 46 48 50 53 55 54 53 52 52 57 69 183 213 224 231 236 242 247 251 251 250 247 246 245 243 243 248 249 248 249 249 246 245 244 246 248 249 248 247 244 241 238 232 227 227 228 229 231
187 132 264 268 244 245 246 235 227 226 235 258 194 132 170 289 203 221 241 124 110 112 114 103 72 56 43 43 30 339 333 41 70 73 70 63 54 52 50 47 46 45 48 51 54 54 51 49 50 51 59 116 194 215 225 229 233 239 244 246 246 245 246 246 246 249 250 250 250 249 247 245 244 245 248 250 252 254 250 241 238 237 232 228 230 232 233
264 120 263 262 249 249 231 87 40 235 222 241 231 168 145 172 220 322 44 94 119 124 123 127 116 109 105 78 58 354 350 38 65 68 68 66 61 56 51 50 48 46 47 49 52 54 52 51 51 51 52 57 69 124 198 219 225 234 238 243 249 248 246 247 247 249 252 253 252 252 250 248 247 247 249 250 250 254 252 240 232 234 236 231 229 231 232
276 106 245 247 247 245 114 118 137 173 190 232 244 227 173 205 261 345 97 117 142 135 131 137 137 141 147 118 91 54 31 44 58 63 64 64 62 58 52 50 50 49 48 48 50 53 51 51 52 53 56 56 53 60 73 104 192 247 254 258 269 267 258 251 248 250 251 250 252 255 254 252 251 251 252 251 249 248 246 237 229 229 235 236 233 233 236
267 244 239 252 323 10 172 162 148 161 189 206 220 217 183 182 237 218 136 144 156 146 145 145 142 149 144 108 85 68 56 57 58 61 62 60 60 59 54 52 52 51 50 49 52 55 54 53 53 55 62 65 65 69 72 71 71 61 20 329 312 304 280 254 244 244 248 252 257 260 260 259 258 255 253 251 248 243 239 236 233 233 239 244 243 241 244
255 265 250 266 313 279 205 164 153 182 203 198 230 250 165 156 192 213 166 154 155 153 156 154 149 154 149 115 85 78 84 74 63 62 64 62 62 63 60 57 55 56 58 56 55 58 59 59 59 63 73 78 77 78 78 75 74 75 70 65 56 46 44 39 235 232 239 251 261 265 266 267 266 262 257 251 244 239 237 237 236 234 237 242 246 248 249
232 274 269 259 275 265 134 107 142 178 177 136 208 267 176 157 179 194 186 168 155 154 166 165 154 153 158 131 99 107 108 92 76 71 70 68 67 67 65 62 59 61 65 65 63 64 64 64 66 72 82 87 85 81 78 76 75 75 71 69 66 64 61 59 62 76 132 220 245 260 265 269 269 264 256 246 237 235 235 236 236 235 236 239 245 249 250
220 256 266 262 273 327 84 101 142 161 164 150 177 243 198 155 166 182 187 175 162 167 180 175 163 165 190 161 137 138 126 107 96 87 77 72 71 70 68 66 64 65 67 66 67 68 64 61 65 72 80 84 83 78 74 73 72 70 67 65 64 64 63 61 63 64 66 79 96 124 242 259 270 261 243 222 214 220 222 221 225 227 227 230 234 240 245
220 241 262 268 275 83 101 126 149 156 168 186 215 245 203 137 156 174 185 179 169 173 180 180 181 195 207 143 144 145 135 116 103 92 81 75 71 71 71 70 67 67 66 63 63 67 64 57 58 67 75 78 77 76 74 72 71 69 67 67 67 68 67 63 62 62 61 66 77 81 83 84 55 294 247 186 176 192 205 208 206 200 199 205 215 226 234
215 229 259 266 243 101 122 151 158 156 174 218 240 251 104 135 150 164 184 185 174 173 177 185 194 130 96 132 143 140 130 117 104 90 82 78 75 73 74 75 71 67 65 62 62 68 70 64 57 62 71 74 74 74 73 71 69 68 68 69 70 72 73 70 66 64 63 65 71 77 84 93 101 111 157 124 122 131 159 196 212 205 200 205 218 228 230
226 235 260 257 222 115 144 152 145 162 198 239 276 84 108 139 145 154 183 185 174 178 181 179 163 123 122 137 140 133 124 115 105 95 89 86 83 78 73 74 74 71 69 66 65 69 74 73 65 62 67 71 71 71 71 69 67 68 68 68 69 69 70 71 70 68 65 64 65 71 76 85 99 111 116 121 124 134 151 164 176 203 208 214 230 243 248
230 233 240 253 286 139 158 154 149 192 223 114 115 135 128 132 141 152 170 172 173 180 177 163 151 141 135 135 132 126 123 116 105 101 100 98 93 86 78 75 75 74 72 70 70 72 75 77 76 70 68 69 69 69 69 68 67 67 68 68 69 68 66 66 66 65 64 62 59 61 65 68 74 80 84 94 115 134 151 157 161 193 229 237 245 253 259
233 242 227 259 44 136 164 167 148 177 147 103 130 159 135 127 147 154 155 161 171 176 170 164 159 149 141 137 132 128 126 119 112 109 107 103 97 92 90 89 85 81 77 72 71 73 74 76 78 76 73 71 70 69 69 68 68 69 69 69 70 69 67 66 64 62 62 63 61 61 62 63 67 70 68 71 81 96 120 145 174 214 235 248 255 257 259
235 304 50 77 89 139 163 164 63 112 131 115 125 145 131 138 153 153 154 159 160 163 165 162 158 154 148 142 135 131 129 125 122 118 111 105 99 94 92 91 88 84 81 76 72 71 72 72 73 76 75 74 73 72 69 65 66 69 69 70 71 70 67 67 65 62 62 64 64 65 67 66 66 68 65 62 62 66 78 101 132 175 201 220 236 241 243
166 53 89 113 131 153 165 159 100 121 140 135 132 136 138 145 148 145 152 153 150 155 160 157 156 156 153 148 142 137 133 129 126 121 114 107 100 96 94 90 85 82 79 77 73 70 70 69 67 69 71 71 72 74 69 61 61 67 67 65 67 68 66 67 67 66 65 65 63 62 64 64 62 62 60 57 58 62 69 76 82 92 108 120 133 160 204
178 186 154 143 152 163 168 167 146 139 144 142 139 140 139 140 142 141 142 144 147 152 156 155 154 153 151 148 144 138 135 133 130 122 116 112 108 104 99 92 88 85 79 76 73 70 69 68 65 63 65 66 68 74 74 68 66 70 68 63 63 66 66 65 67 66 65 66 65 63 63 62 60 62 62 58 57 61 66 69 71 72 75 81 88 95 100
177 141 133 137 146 157 165 167 158 155 154 143 136 139 141 141 140 137 138 142 147 150 153 154 152 150 150 149 145 142 140 138 133 127 122 118 113 106 99 93 89 86 80 75 72 68 66 65 63 61 62 63 65 71 77 80 78 75 72 70 68 69 68 66 67 66 64 64 65 65 67 67 66 68 71 71 69 67 67 69 71 73 77 84 92 99 101
168 114 134 147 150 157 170 173 162 158 157 147 141 143 144 144 142 139 140 144 147 152 155 154 152 152 154 152 149 148 145 142 139 136 129 122 117 111 107 102 94 88 81 74 68 64 63 62 59 58 59 60 63 67 71 78 81 78 73 70 67 66 64 60 59 60 58 60 66 66 65 67 70 71 70 71 71 72 72 74 75 78 86 97 104 106 104
215 192 170 170 172 174 177 177 167 159 157 152 149 148 147 150 150 147 145 145 147 154 158 158 157 158 157 157 157 153 150 147 144 140 134 130 127 123 118 111 100 91 82 72 64 59 59 57 53 52 52 52 57 62 66 71 78 81 78 71 62 60 61 59 59 57 48 50 64 71 69 68 70 73 73 70 68 68 68 69 71 73 74 81 90 87 53
256 183 172 179 200 201 174 172 168 162 159 156 156 154 153 156 158 156 154 152 151 156 161 163 165 163 160 161 161 158 157 155 151 145 141 137 135 136 134 123 105 89 80 73 66 60 57 53 47 44 41 38 41 47 53 59 64 69 75 74 65 55 51 54 60 61 50 44 55 65 73 77 75 75 74 70 67 66 65 64 65 68 68 68 70 67 59
287 164 170 179 201 189 167 168 166 162 162 161 158 157 157 159 162 163 164 160 157 159 162 164 167 166 164 163 163 163 165 165 163 160 155 148 148 150 149 143 125 101 84 76 70 67 62 54 47 42 35 27 24 23 24 32 40 44 51 58 60 53 44 45 51 50 46 47 48 47 55 67 73 73 69 62 58 60 65 67 67 66 65 65 68 71 71
169 159 163 167 168 156 160 163 161 162 163 162 160 160 159 161 164 167 168 167 165 164 163 163 164 166 165 165 165 166 167 169 172 171 162 156 157 157 158 164 155 125 92 77 72 71 62 47 40 40 34 25 20 16 11 10 10 10 14 22 31 34 32 35 38 36 36 41 42 42 46 49 52 58 59 56 54 52 57 64 66 64 65 68 73 79 80
153 150 153 150 141 145 155 158 161 165 165 162 161 160 159 162 165 168 171 172 171 170 169 166 166 168 168 167 166 165 166 169 173 172 169 169 169 167 176 189 181 151 110 83 66 56 46 35 29 34 34 21 14 14 12 6 2 360 358 354 352 353 357 5 14 20 23 26 28 34 41 43 47 50 31 16 59 58 50 49 47 46 52 58 64 71 72
169 159 158 153 146 155 164 167 167 167 166 164 162 158 156 159 160 161 166 169 168 170 172 171 171 173 174 173 172 170 171 173 175 178 183 187 182 180 189 195 186 156 96 72 49 38 41 40 36 35 29 17 14 16 10 359 356 357 355 352 348 341 334 332 337 348 355 358 3 10 21 37 51 50 314 313 353 29 85 83 43 27 35 38 40 46 44
178 169 168 173 174 173 174 174 170 167 166 165 163 158 155 156 156 156 160 163 162 165 168 169 172 175 176 176 177 177 177 178 181 185 188 187 184 186 190 185 168 125 93 76 55 48 51 52 53 44 22 13 17 16 4 355 352 347 347 353 353 342 334 328 322 319 320 320 323 326 331 356 28 32 269 280 286 274 251 165 156 299 314 337 360 8 9
189 181 182 188 181 172 170 168 167 167 167 166 164 162 159 158 158 159 161 161 162 164 164 166 171 175 175 176 177 179 180 182 182 183 183 181 181 179 168 152 135 114 103 86 61 53 50 43 46 44 18 9 8 4 358 357 351 336 330 333 329 318 319 320 317 313 309 305 304 302 300 309 329 321 264 255 247 243 248 254 250 254 275 304 336 343 339
197 194 195 192 175 172 174 170 167 169 170 168 167 168 166 164 162 161 161 162 163 164 163 165 169 172 173 175 177 179 181 180 178 177 174 170 164 156 142 132 128 123 119 95 55 39 27 19 20 10 355 356 354 349 349 349 340 328 322 316 303 292 293 303 308 308 303 301 303 303 300 304 305 278 250 245 242 236 234 237 237 247 268 282 301 315 315
199 198 200 194 178 176 177 172 169 171 172 171 171 172 171 170 168 165 164 165 164 163 163 163 164 164 166 169 172 173 173 170 168 166 163 158 156 155 147 140 147 159 176 195 333 346 348 352 343 326 330 334 333 333 335 333 327 325 319 308 300 295 291 294 303 306 302 299 301 302 299 291 281 270 255 249 250 245 237 231 227 233 252 264 268 275 281
193 189 194 193 182 177 176 173 172 174 173 174 177 177 175 175 172 168 167 168 167 165 164 163 162 161 161 163 166 166 166 165 165 167 169 170 172 176 178 179 186 200 217 239 276 304 315 317 311 310 316 320 320 321 321 317 315 317 310 302 302 298 288 286 290 292 289 287 287 290 291 283 274 269 261 256 256 253 250 246 234 225 227 236 247 254 255
183 176 183 185 179 175 174 174 176 177 177 179 181 180 178 177 175 170 170 170 168 168 168 167 166 165 164 164 165 166 167 169 173 177 184 190 195 199 206 213 220 233 247 261 279 288 288 291 294 298 302 305 306 308 308 304 305 307 303 298 299 294 287 286 285 277 271 271 271 274 276 273 269 266 261 258 258 257 255 252 243 234 223 213 223 238 248
202 199 201 196 189 185 183 180 178 179 180 181 182 182 180 179 176 173 172 171 171 173 173 172 172 172 171 171 173 174 176 180 185 188 194 202 209 214 218 224 232 243 254 262 266 269 275 282 286 291 296 298 299 299 299 296 295 296 294 293 293 290 285 285 282 278 273 269 265 263 265 266 268 266 260 257 256 257 257 252 245 242 231 216 228 248 259
217 214 213 208 200 196 191 186 181 181 181 182 183 183 181 178 176 174 174 175 177 177 177 178 178 177 178 181 184 186 189 193 197 199 202 210 220 224 226 230 237 242 249 258 263 267 277 286 291 294 296 296 294 292 290 288 287 288 288 287 288 287 285 280 274 272 272 268 263 259 258 260 262 260 257 256 254 254 256 254 249 247 238 225 231 252 261
210 208 209 206 200 192 188 186 185 185 185 184 183 183 181 179 178 179 178 179 180 180 181 182 182 181 185 192 194 198 203 207 209 212 216 222 228 229 226 225 226 228 242 263 270 273 281 289 295 296 295 292 290 286 282 278 276 275 275 277 279 281 282 279 275 272 270 269 268 263 258 255 254 253 257 260 258 252 253 252 248 247 242 229 222 234 249
202 202 204 200 190 182 181 184 185 186 188 188 188 187 184 179 178 180 181 182 184 185 184 186 187 190 196 202 205 209 212 211 210 214 221 225 227 227 225 224 229 242 255 262 268 278 289 293 294 292 290 286 283 279 278 278 276 270 269 274 277 277 276 276 275 273 270 270 271 269 265 262 260 259 263 267 264 257 254 253 247 244 240 228 215 215 222
199 199 197 189 181 176 179 183 185 186 189 191 191 191 188 184 184 186 187 187 188 187 186 190 194 199 205 211 214 214 212 209 207 212 219 223 222 222 226 231 240 254 261 263 272 285 292 291 288 286 286 286 283 278 276 277 274 269 268 271 271 271 272 273 273 273 271 269 268 269 267 265 264 262 263 265 264 261 257 250 243 241 238 229 220 219 219
200 198 189 180 177 178 182 185 185 184 186 191 192 192 191 190 190 190 189 188 188 188 189 194 199 204 211 217 219 216 212 209 208 212 218 220 219 222 235 248 256 262 266 271 280 286 286 285 289 295 294 296 297 295 293 290 282 275 276 279 277 274 274 273 271 271 272 272 272 270 269 269 269 267 263 261 261 259 254 246 240 238 236 233 227 225 225
201 198 188 180 178 177 177 180 181 179 182 191 196 195 192 190 189 187 187 188 189 190 195 199 201 208 215 216 211 210 213 214 213 216 223 231 238 246 255 263 267 269 268 269 274 279 278 283 293 295 291 300 307 303 302 307 305 299 296 295 293 289 285 281 278 276 275 274 274 272 271 271 272 271 267 263 260 257 252 247 240 235 235 237 232 225 223
202 198 191 184 180 176 172 173 176 176 178 185 192 193 191 190 189 187 188 190 191 194 199 203 205 209 211 205 202 212 221 225 227 232 237 242 249 257 259 258 262 267 267 263 267 275 280 282 285 288 299 305 296 292 301 315 315 305 299 295 294 294 292 289 287 284 280 277 276 275 275 275 274 273 271 267 262 257 252 248 242 238 240 242 238 231 228
203 199 194 188 184 181 177 172 172 175 178 180 183 187 190 192 192 191 191 193 196 198 201 204 208 211 211 208 213 224 231 231 235 239 240 238 240 240 240 248 257 262 263 266 275 280 287 297 299 289 272 263 273 291 313 331 319 295 297 296 293 295 297 295 294 292 289 285 282 279 278 278 278 277 275 272 267 260 253 248 246 246 246 244 240 235 228
206 202 197 192 188 186 184 179 174 175 178 179 180 185 190 193 194 195 195 198 201 202 203 205 208 212 216 219 223 229 231 234 239 242 241 239 240 231 217 227 253 264 261 256 264 272 277 281 270 261 258 265 286 305 332 352 323 296 298 300 298 303 306 305 304 303 301 299 296 292 287 285 283 281 279 276 271 264 255 249 247 246 245 243 240 233 224
209 204 200 196 192 190 189 186 180 177 178 179 181 186 191 194 196 198 199 200 200 200 203 206 208 212 219 223 222 221 226 231 233 227 218 223 244 242 230 227 246 263 261 254 248 246 244 244 248 255 268 286 298 311 352 352 299 287 293 304 307 305 301 298 299 303 304 303 303 302 302 302 299 294 288 282 275 266 255 247 243 240 242 247 244 234 222
209 206 203 200 196 193 192 191 186 183 182 182 184 188 192 194 195 197 198 200 200 200 203 209 214 219 224 222 212 205 208 208 201 195 195 197 220 243 246 239 230 245 259 257 237 221 234 238 241 257 282 284 278 297 347 311 279 281 295 301 301 302 303 302 302 304 305 305 302 299 301 307 308 302 293 283 272 261 249 242 240 241 244 247 244 234 225
208 206 204 202 198 195 195 194 191 187 185 185 186 189 191 193 194 194 195 198 201 203 208 217 223 226 226 221 213 205 199 191 190 197 203 201 204 218 233 235 230 240 264 272 234 219 238 238 241 272 291 271 247 238 298 279 271 281 286 290 299 310 311 310 311 312 313 317 312 299 297 301 300 295 292 285 274 263 254 249 248 246 243 239 234 232 231
207 204 202 200 197 195 195 194 192 190 189 189 189 188 188 190 193 194 195 200 206 210 216 224 228 225 221 219 213 201 187 181 190 202 211 217 224 235 249 251 243 241 239 206 193 210 231 236 249 283 279 236 192 154 294 281 277 282 286 295 310 308 293 301 327 334 333 338 338 334 332 326 309 299 301 300 284 267 258 253 247 240 234 231 230 232 237
205 201 198 197 195 193 193 193 192 191 191 192 192 191 190 191 194 196 199 204 210 214 218 222 222 217 213 210 200 186 177 179 190 202 209 214 227 244 251 241 226 219 202 189 200 220 237 244 256 261 229 175 143 104 286 268 266 276 286 298 309 309 309 320 323 318 323 329 331 331 334 332 322 313 315 313 298 273 254 247 241 233 231 234 237 240 244
203 199 196 194 192 191 192 192 190 190 190 191 192 193 193 193 194 197 202 207 209 206 206 209 211 209 204 193 180 174 179 185 190 199 204 200 195 204 218 216 203 187 179 188 213 253 275 270 253 229 192 162 153 219 247 250 257 249 232 241 282 302 291 275 271 293 322 326 321 320 325 323 313 307 303 301 297 284 262 247 241 236 232 233 237 241 244
199 196 194 191 189 190 190 189 189 190 191 192 193 194 194 193 194 196 199 201 196 187 183 188 192 191 185 176 170 175 187 193 193 194 196 189 179 177 180 173 141 132 144 157 186 259 296 301 276 212 174 161 180 209 205 202 223 244 240 231 245 284 291 296 313 339 334 308 298 309 313 303 296 295 295 293 289 283 272 263 258 250 243 240 242 245 244
199 196 192 189 189 189 188 188 190 192 192 192 192 191 190 190 193 194 193 190 184 177 174 175 178 177 175 175 177 183 190 191 187 183 178 170 161 155 150 137 119 108 108 115 128 185 257 273 264 199 146 133 159 210 190 162 169 220 244 229 217 264 293 310 333 333 310 295 293 303 302 295 292 292 290 286 281 275 271 273 274 265 256 250 246 242 240
199 194 191 189 187 184 182 186 191 193 191 189 189 188 187 186 187 188 187 186 183 178 174 174 176 177 176 176 178 182 183 178 173 170 166 160 152 144 133 121 109 97 86 86 96 130 225 244 239 145 129 132 146 169 140 129 142 180 217 211 210 252 279 276 265 278 290 295 299 298 293 289 287 284 279 275 270 266 265 268 269 264 257 251 245 237 234
Height
1520 1519 1520 1519 1520 1522 1521 1522 1522 1520 1520 1520 1523 1526 1526 1532 1542 1540 1532 1530 1530 1530 1533 1535 1535 1535 1534 1534 1534 1533 1532 1532 1530 1530 1529 1529 1528 1527 1527 1526 1526 1526 1527 1527 1527 1528 1528 1528 1527 1527 1528 1530 1531 1532 1533 1535 1536 1538 1538 1538 1538 1539 1540 1541 1543 1545 1546 1548 1549 1551 1552 1554 1555 1557 1559 1561 1562 1563 1564 1564 1565 1566 1567 1568 1568 1568 1569
1520 1520 1521 1519 1520 1522 1523 1523 1522 1521 1521 1520 1521 1523 1523 1527 1533 1533 1532 1533 1533 1533 1534 1535 1537 1537 1536 1536 1536 1535 1535 1533 1531 1530 1530 1530 1530 1529 1528 1528 1527 1528 1528 1527 1528 1527 1527 1527 1526 1526 1526 1527 1528 1530 1531 1533 1535 1536 1537 1536 1535 1535 1537 1538 1540 1542 1543 1544 1546 1548 1549 1551 1552 1554 1556 1558 1560 1561 1562 1562 1563 1564 1565 1565 1566 1567 1567
1521 1520 1520 1520 1520 1522 1523 1524 1523 1521 1522 1522 1522 1524 1525 1527 1530 1530 1530 1532 1534 1534 1534 1535 1537 1538 1537 1536 1535 1538 1538 1536 1533 1531 1530 1532 1533 1531 1530 1529 1528 1528 1528 1528 1527 1527 1526 1526 1525 1524 1524 1524 1526 1528 1530 1532 1534 1534 1535 1534 1533 1533 1535 1536 1538 1539 1540 1541 1543 1545 1546 1548 1549 1551 1553 1556 1557 1558 1559 1560 1561 1561 1562 1563 1563 1565 1565
1522 1519 1521 1521 1519 1521 1522 1523 1522 1521 1522 1523 1523 1524 1525 1526 1528 1530 1531 1531 1532 1532 1533 1535 1537 1538 1538 1537 1537 1541 1542 1538 1535 1532 1531 1534 1535 1532 1531 1531 1530 1529 1528 1528 1527 1527 1526 1526 1525 1524 1525 1525 1526 1527 1529 1531 1532 1532 1532 1532 1532 1532 1533 1534 1535 1536 1537 1538 1540 1541 1543 1545 1546 1547 1550 1552 1554 1554 1556 1558 1558 1557 1559 1560 1561 1562 1563
1522 1519 1522 1520 1520 1526 1528 1523 1520 1520 1521 1523 1523 1525 1525 1524 1527 1530 1528 1526 1529 1531 1532 1534 1537 1539 1540 1539 1540 1543 1544 1540 1536 1533 1532 1534 1535 1534 1534 1533 1532 1531 1530 1529 1528 1527 1527 1526 1525 1525 1525 1526 1526 1527 1528 1529 1529 1530 1530 1530 1530 1531 1531 1532 1533 1533 1534 1535 1536 1538 1540 1541 1543 1544 1545 1547 1549 1550 1551 1553 1554 1554 1555 1556 1558 1559 1560
1524 1521 1521 1522 1527 1533 1531 1522 1518 1519 1522 1523 1524 1526 1525 1524 1526 1526 1524 1525 1528 1530 1532 1534 1537 1540 1541 1540 1540 1544 1545 1541 1538 1535 1534 1534 1535 1535 1535 1534 1534 1533 1532 1530 1529 1527 1527 1527 1526 1526 1526 1526 1526 1527 1527 1528 1528 1528 1529 1528 1528 1528 1529 1530 1530 1531 1531 1532 1534 1535 1537 1538 1539 1540 1541 1543 1544 1545 1547 1549 1551 1552 1552 1553 1554 1555 1556
1523 1521 1524 1534 1537 1530 1522 1520 1519 1520 1522 1522 1523 1525 1525 1525 1525 1525 1527 1531 1531 1531 1534 1536 1538 1540 1541 1539 1538 1541 1544 1543 1540 1538 1537 1536 1535 1535 1535 1535 1535 1534 1533 1532 1530 1529 1528 1527 1527 1526 1526 1526 1526 1526 1526 1526 1527 1527 1526 1526 1526 1526 1527 1527 1528 1528 1529 1530 1531 1533 1534 1536 1536 1537 1537 1539 1540 1541 1543 1545 1546 1547 1548 1550 1550 1551 1552
1524 1525 1530 1537 1532 1519 1515 1519 1520 1520 1522 1523 1524 1526 1525 1525 1526 1526 1529 1533 1533 1532 1535 1537 1538 1540 1540 1537 1536 1539 1543 1543 1542 1540 1539 1538 1537 1537 1536 1536 1536 1535 1535 1534 1533 1531 1530 1529 1528 1527 1526 1526 1526 1525 1525 1525 1525 1525 1525 1524 1524 1524 1524 1524 1524 1526 1527 1528 1529 1530 1531 1533 1534 1534 1534 1535 1536 1537 1538 1541 1542 1543 1545 1548 1549 1550 1550
1525 1526 1526 1524 1521 1517 1516 1517 1519 1520 1520 1520 1523 1525 1524 1524 1525 1526 1528 1530 1531 1533 1534 1536 1537 1538 1537 1537 1538 1539 1542 1543 1543 1542 1541 1540 1539 1538 1538 1538 1537 1536 1536 1536 1535 1534 1532 1531 1530 1528 1528 1528 1527 1526 1525 1525 1525 1525 1525 1524 1524 1524 1524 1523 1523 1523 1524 1525 1526 1527 1529 1529 1530 1531 1531 1532 1533 1534 1535 1536 1537 1538 1541 1544 1547 1548 1548
1522 1524 1525 1524 1527 1527 1521 1516 1516 1517 1518 1518 1519 1523 1524 1522 1524 1526 1527 1528 1531 1532 1534 1535 1536 1535 1536 1537 1539 1540 1541 1542 1543 1544 1542 1541 1540 1540 1540 1539 1538 1537 1537 1537 1536 1536 1534 1533 1532 1531 1530 1529 1528 1527 1527 1527 1527 1526 1526 1525 1525 1525 1524 1523 1522 1522 1523 1522 1523 1525 1526 1527 1528 1528 1527 1528 1529 1530 1531 1533 1534 1535 1537 1541 1544 1545 1545
1521 1525 1528 1527 1528 1526 1519 1515 1516 1517 1519 1518 1519 1525 1526 1521 1522 1526 1527 1528 1532 1533 1534 1534 1534 1535 1537 1537 1538 1541 1541 1542 1544 1544 1543 1542 1541 1541 1541 1540 1540 1539 1538 1538 1537 1536 1536 1535 1535 1533 1532 1531 1530 1529 1529 1529 1528 1528 1527 1527 1526 1526 1525 1524 1524 1523 1523 1523 1523 1524 1524 1525 1526 1527 1525 1523 1524 1527 1529 1530 1532 1533 1535 1537 1541 1543 1543
1518 1522 1524 1520 1518 1518 1516 1515 1516 1518 1518 1518 1524 1536 1533 1521 1521 1527 1526 1527 1531 1532 1534 1534 1533 1534 1535 1535 1537 1541 1542 1542 1544 1544 1543 1543 1543 1542 1542 1542 1541 1540 1539 1539 1538 1537 1536 1537 1537 1536 1534 1533 1531 1531 1531 1531 1530 1529 1529 1529 1529 1528 1527 1527 1526 1525 1525 1525 1524 1524 1523 1523 1525 1527 1526 1522 1522 1525 1528 1529 1530 1532 1532 1534 1538 1540 1540
1515 1521 1523 1517 1513 1514 1515 1515 1516 1517 1519 1522 1529 1535 1530 1522 1523 1526 1526 1527 1530 1531 1533 1534 1533 1533 1534 1534 1537 1540 1541 1542 1542 1543 1544 1544 1544 1544 1543 1542 1542 1541 1540 1540 1539 1538 1537 1538 1539 1538 1536 1535 1534 1533 1532 1532 1531 1532 1532 1531 1531 1530 1529 1528 1528 1527 1527 1526 1525 1525 1525 1525 1526 1527 1527 1524 1523 1526 1528 1529 1530 1530 1530 1532 1535 1537 1537
1514 1517 1520 1518 1516 1515 1515 1516 1517 1518 1522 1527 1528 1524 1522 1523 1525 1526 1527 1528 1529 1531 1533 1533 1534 1535 1536 1537 1538 1539 1540 1541 1542 1543 1544 1545 1545 1545 1544 1543 1543 1542 1541 1541 1540 1539 1539 1538 1539 1539 1538 1537 1536 1535 1534 1533 1533 1534 1534 1533 1532 1532 1531 1530 1529 1529 1529 1528 1528 1527 1527 1528 1528 1527 1527 1526 1525 1527 1528 1529 1528 1528 1529 1531 1533 1535 1535
1515 1518 1522 1524 1522 1517 1515 1516 1518 1519 1521 1524 1524 1522 1523 1525 1525 1526 1528 1529 1529 1531 1532 1533 1535 1536 1537 1538 1539 1539 1541 1541 1542 1543 1544 1545 1546 1546 1545 1545 1544 1543 1543 1542 1541 1541 1540 1539 1539 1539 1539 1538 1537 1537 1536 1535 1536 1535 1535 1535 1534 1533 1533 1532 1531 1531 1530 1530 1529 1529 1529 1529 1530 1529 1528 1528 1528 1528 1529 1528 1527 1526 1527 1529 1531 1533 1533
1516 1520 1521 1520 1517 1514 1514 1516 1516 1517 1518 1520 1522 1523 1523 1524 1525 1527 1528 1529 1530 1531 1532 1533 1535 1536 1537 1538 1538 1539 1541 1542 1543 1544 1545 1545 1546 1546 1545 1545 1545 1544 1544 1544 1543 1542 1541 1540 1540 1540 1539 1539 1539 1538 1538 1537 1537 1537 1536 1536 1536 1535 1535 1534 1533 1533 1532 1531 1531 1530 1530 1530 1530 1530 1530 1530 1529 1528 1528 1527 1525 1525 1526 1529 1530 1531 1532
1511 1512 1512 1512 1512 1513 1515 1516 1516 1517 1519 1520 1522 1522 1522 1524 1526 1527 1527 1529 1530 1531 1532 1534 1535 1536 1537 1538 1538 1539 1541 1542 1544 1545 1545 1546 1547 1546 1546 1545 1545 1545 1545 1545 1544 1543 1542 1542 1541 1540 1540 1540 1540 1540 1540 1540 1539 1538 1538 1538 1537 1537 1536 1536 1535 1534 1534 1533 1533 1532 1531 1531 1531 1531 1530 1530 1529 1528 1527 1526 1526 1525 1527 1528 1529 1531 1531
1508 1510 1510 1511 1513 1514 1515 1517 1518 1519 1520 1520 1521 1522 1523 1524 1525 1526 1528 1529 1530 1531 1532 1533 1535 1536 1537 1538 1539 1540 1541 1542 1544 1545 1546 1547 1547 1547 1547 1546 1546 1547 1547 1546 1545 1544 1544 1543 1543 1541 1541 1541 1541 1541 1541 1541 1541 1540 1540 1539 1538 1538 1538 1537 1537 1536 1535 1535 1534 1533 1533 1532 1532 1531 1531 1531 1531 1530 1529 1529 1528 1528 1528 1528 1529 1530 1530
1511 1512 1510 1510 1513 1514 1515 1517 1518 1519 1520 1521 1522 1522 1523 1524 1526 1527 1528 1528 1529 1531 1532 1533 1534 1536 1537 1538 1539 1540 1542 1543 1544 1545 1546 1547 1547 1547 1547 1547 1548 1548 1548 1547 1546 1546 1545 1545 1543 1543 1542 1542 1542 1542 1542 1543 1543 1541 1541 1541 1540 1540 1539 1539 1538 1538 1537 1536 1536 1535 1534 1534 1533 1533 1532 1533 1533 1533 1532 1531 1530 1530 1529 1529 1529 1530 1530
1510 1510 1509 1511 1513 1514 1515 1516 1518 1519 1520 1521 1522 1523 1524 1525 1526 1527 1527 1528 1529 1530 1531 1533 1534 1536 1537 1538 1539 1540 1542 1544 1545 1546 1547 1547 1547 1548 1548 1548 1549 1549 1549 1548 1548 1547 1546 1545 1545 1544 1544 1544 1544 1544 1543 1543 1543 1542 1542 1542 1541 1541 1541 1540 1540 1540 1539 1539 1538 1537 1536 1536 1535 1535 1534 1534 1535 1534 1534 1533 1532 1531 1531 1531 1531 1531 1531
1508 1510 1511 1512 1514 1515 1516 1516 1517 1518 1520 1521 1522 1523 1524 1525 1526 1527 1528 1529 1530 1531 1532 1533 1534 1536 1537 1539 1540 1541 1543 1544 1545 1547 1547 1548 1548 1549 1549 1549 1550 1549 1549 1549 1548 1548 1547 1546 1546 1546 1546 1546 1546 1545 1545 1544 1544 1543 1543 1543 1543 1542 1542 1542 1542 1541 1541 1540 1540 1539 1539 1538 1537 1537 1536 1536 1536 1535 1535 1534 1534 1533 1533 1533 1533 1533 1533
1507 1507 1508 1510 1511 1511 1513 1515 1516 1518 1520 1521 1522 1523 1524 1526 1527 1527 1528 1530 1531 1532 1533 1534 1535 1537 1538 1539 1541 1542 1543 1544 1546 1547 1547 1548 1549 1549 1549 1550 1550 1550 1550 1550 1549 1548 1548 1547 1547 1547 1547 1547 1547 1546 1546 1545 1545 1544 1544 1544 1544 1544 1543 1543 1543 1543 1543 1542 1541 1541 1541 1540 1539 1538 1538 1538 1537 1537 1536 1535 1535 1535 1534 1534 1534 1534 1533
1503 1501 1503 1506 1507 1507 1509 1513 1516 1518 1520 1521 1522 1524 1525 1526 1527 1528 1529 1530 1531 1532 1534 1535 1536 1537 1538 1540 1541 1542 1544 1545 1546 1547 1548 1549 1549 1549 1550 1550 1550 1551 1551 1550 1550 1549 1548 1548 1548 1548 1548 1548 1548 1547 1547 1546 1546 1546 1545 1545 1545 1545 1544 1544 1543 1543 1543 1543 1542 1541 1541 1541 1540 1540 1539 1539 1538 1538 1537 1537 1536 1536 1536 1535 1535 1534 1534
1501 1501 1503 1506 1507 1506 1509 1512 1515 1517 1519 1521 1522 1523 1525 1526 1527 1529 1530 1531 1532 1533 1534 1535 1537 1537 1539 1540 1542 1543 1544 1545 1546 1547 1548 1548 1549 1549 1550 1550 1551 1551 1551 1550 1550 1550 1549 1549 1549 1549 1549 1549 1548 1548 1548 1547 1547 1547 1546 1546 1546 1546 1545 1545 1544 1543 1543 1543 1542 1542 1542 1541 1541 1541 1541 1540 1539 1539 1538 1538 1537 1537 1536 1536 1536 1535 1535
1502 1502 1504 1506 1507 1507 1509 1512 1515 1517 1519 1520 1522 1523 1525 1526 1527 1529 1530 1531 1532 1533 1534 1535 1537 1538 1539 1540 1542 1543 1544 1545 1546 1547 1547 1548 1549 1549 1550 1550 1550 1550 1550 1550 1549 1549 1549 1549 1549 1550 1550 1550 1549 1549 1548 1547 1547 1547 1547 1547 1546 1546 1546 1545 1545 1544 1544 1543 1543 1543 1542 1542 1542 1542 1542 1542 1541 1540 1539 1539 1538 1538 1537 1537 1537 1536 1536
1502 1503 1504 1507 1508 1509 1510 1512 1514 1517 1518 1520 1522 1523 1524 1525 1527 1528 1530 1531 1532 1533 1534 1535 1536 1538 1539 1541 1542 1543 1544 1545 1546 1546 1547 1548 1549 1549 1550 1550 1550 1550 1550 1549 1549 1549 1549 1549 1550 1550 1550 1550 1549 1549 1548 1548 1547 1547 1546 1546 1546 1546 1546 1545 1545 1544 1544 1544 1543 1543 1542 1542 1542 1542 1542 1542 1541 1541 1541 1540 1540 1539 1538 1538 1537 1537 1536
1502 1503 1504 1506 1508 1509 1510 1511 1513 1515 1518 1520 1521 1522 1524 1525 1526 1528 1530 1531 1532 1533 1534 1535 1536 1537 1539 1540 1541 1542 1544 1545 1545 1546 1547 1548 1548 1549 1549 1549 1549 1549 1549 1549 1549 1549 1549 1549 1550 1550 1549 1549 1549 1548 1548 1548 1547 1547 1546 1546 1546 1545 1545 1545 1544 1544 1544 1543 1543 1543 1542 1542 1542 1542 1542 1541 1541 1541 1541 1541 1541 1540 1539 1539 1538 1537 1537
1502 1503 1504 1505 1506 1508 1509 1511 1513 1515 1517 1519 1521 1522 1523 1525 1526 1528 1529 1530 1532 1533 1534 1535 1536 1537 1538 1539 1541 1542 1543 1544 1545 1546 1546 1547 1548 1548 1548 1548 1549 1549 1549 1549 1549 1549 1549 1550 1550 1550 1549 1548 1548 1548 1548 1547 1547 1547 1546 1546 1546 1546 1545 1544 1544 1544 1543 1543 1542 1542 1542 1541 1541 1541 1541 1541 1541 1541 1541 1540 1541 1541 1540 1539 1538 1537 1537
1502 1503 1504 1505 1505 1507 1509 1511 1513 1514 1516 1519 1520 1522 1523 1524 1526 1527 1529 1530 1531 1533 1533 1535 1535 1536 1537 1538 1539 1541 1542 1543 1544 1545 1545 1546 1547 1547 1547 1548 1549 1549 1549 1549 1549 1549 1550 1550 1550 1549 1549 1548 1547 1547 1547 1546 1546 1546 1546 1545 1546 1546 1545 1544 1543 1543 1543 1542 1542 1541 1541 1541 1540 1540 1540 1541 1541 1541 1541 1540 1540 1540 1540 1539 1538 1538 1537
1500 1502 1503 1504 1505 1506 1508 1509 1511 1513 1515 1517 1519 1521 1522 1524 1525 1526 1528 1529 1531 1532 1533 1534 1535 1536 1537 1538 1539 1540 1541 1542 1543 1544 1544 1545 1546 1547 1547 1548 1548 1549 1549 1549 1549 1550 1550 1549 1549 1549 1548 1548 1547 1547 1546 1546 1546 1545 1544 1544 1544 1544 1544 1543 1543 1542 1542 1542 1541 1541 1540 1540 1540 1540 1540 1540 1540 1540 1540 1540 1539 1539 1540 1539 1539 1539 1538
1498 1500 1502 1503 1505 1506 1507 1508 1510 1512 1514 1516 1518 1520 1521 1523 1524 1526 1527 1529 1530 1531 1533 1534 1535 1536 1537 1538 1539 1540 1541 1542 1543 1544 1544 1545 1546 1546 1547 1548 1548 1549 1549 1549 1549 1549 1549 1549 1549 1548 1547 1547 1546 1546 1545 1545 1545 1544 1544 1543 1543 1542 1542 1541 1541 1541 1541 1541 1541 1540 1540 1540 1540 1540 1539 1540 1539 1539 1539 1538 1538 1539 1539 1539 1539 1539 1538
1497 1499 1501 1502 1504 1505 1506 1508 1509 1511 1513 1515 1517 1519 1520 1522 1523 1525 1526 1528 1529 1531 1532 1533 1535 1536 1537 1538 1539 1540 1541 1542 1543 1543 1544 1545 1545 1546 1546 1547 1548 1548 1548 1548 1548 1548 1548 1548 1548 1547 1546 1546 1545 1545 1545 1544 1543 1543 1543 1542 1542 1541 1540 1539 1539 1540 1540 1540 1540 1540 1540 1539 1539 1539 1539 1539 1538 1538 1538 1537 1537 1537 1538 1538 1538 1538 1537
1495 1497 1499 1501 1502 1503 1505 1506 1508 1509 1511 1514 1516 1518 1519 1521 1522 1524 1525 1527 1529 1530 1531 1533 1534 1535 1536 1537 1538 1539 1540 1541 1542 1543 1544 1544 1544 1545 1545 1546 1546 1547 1547 1547 1547 1547 1546 1546 1546 1545 1545 1544 1544 1544 1544 1543 1542 1542 1541 1541 1540 1540 1539 1538 1538 1538 1539 1539 1539 1539 1539 1538 1538 1538 1538 1537 1537 1537 1537 1537 1537 1536 1536 1537 1537 1536 1535
1493 1495 1496 1497 1499 1501 1502 1504 1506 1508 1510 1512 1515 1517 1519 1520 1522 1523 1525 1526 1528 1529 1531 1532 1533 1534 1536 1537 1538 1539 1540 1541 1541 1542 1542 1543 1543 1544 1544 1544 1545 1545 1545 1545 1545 1545 1545 1544 1544 1543 1543 1542 1542 1542 1541 1541 1540 1540 1540 1539 1539 1539 1538 1538 1537 1537 1537 1537 1537 1537 1537 1537 1536 1536 1536 1536 1536 1536 1536 1535 1536 1535 1535 1535 1535 1534 1533
1492 1494 1495 1496 1498 1499 1500 1502 1503 1506 1508 1511 1514 1516 1517 1519 1521 1522 1524 1525 1527 1528 1530 1531 1532 1533 1535 1536 1537 1538 1538 1539 1540 1541 1541 1541 1542 1542 1543 1543 1543 1543 1543 1543 1543 1543 1543 1542 1541 1541 1541 1540 1540 1539 1539 1539 1538 1538 1538 1538 1537 1537 1537 1537 1536 1536 1536 1536 1535 1535 1535 1535 1535 1535 1535 1534 1534 1534 1534 1534 1534 1534 1534 1534 1533 1532 1532
1492 1493 1494 1495 1497 1498 1500 1501 1502 1504 1506 1509 1512 1514 1516 1518 1519 1521 1522 1524 1526 1527 1528 1530 1531 1532 1534 1535 1536 1537 1537 1538 1539 1539 1539 1540 1540 1541 1541 1542 1542 1542 1543 1542 1541 1541 1540 1540 1539 1538 1538 1537 1537 1537 1536 1536 1536 1536 1536 1536 1536 1536 1536 1535 1535 1534 1534 1534 1533 1533 1533 1533 1533 1533 1532 1532 1532 1532 1532 1533 1533 1533 1533 1533 1532 1531 1531
1490 1492 1493 1494 1496 1498 1499 1500 1502 1503 1505 1508 1510 1513 1514 1516 1518 1520 1522 1523 1525 1526 1527 1528 1530 1531 1532 1533 1534 1535 1536 1537 1537 1537 1538 1539 1539 1539 1540 1540 1541 1541 1542 1541 1539 1539 1538 1537 1536 1536 1535 1535 1535 1534 1534 1533 1533 1533 1534 1534 1534 1534 1534 1534 1533 1533 1532 1532 1532 1531 1531 1531 1530 1530 1530 1530 1530 1530 1531 1531 1531 1531 1532 1532 1532 1531 1531
1489 1491 1492 1493 1495 1496 1498 1499 1501 1502 1504 1507 1509 1511 1513 1515 1517 1519 1520 1522 1523 1524 1526 1527 1528 1530 1531 1532 1533 1534 1534 1535 1535 1536 1536 1537 1538 1538 1539 1539 1540 1540 1540 1539 1537 1536 1536 1535 1534 1534 1533 1533 1533 1532 1531 1531 1531 1531 1531 1532 1533 1533 1532 1532 1532 1531 1531 1530 1530 1529 1529 1529 1528 1528 1529 1529 1528 1529 1529 1529 1530 1530 1530 1530 1530 1530 1530
1487 1489 1491 1492 1493 1495 1497 1498 1499 1501 1503 1506 1508 1510 1512 1514 1516 1517 1519 1521 1522 1523 1524 1526 1527 1528 1529 1530 1531 1532 1533 1533 1534 1535 1535 1536 1536 1537 1538 1538 1537 1537 1536 1536 1535 1535 1534 1533 1532 1532 1532 1531 1531 1530 1530 1529 1529 1529 1529 1530 1530 1530 1530 1530 1530 1529 1529 1528 1528 1527 1527 1527 1526 1526 1527 1527 1527 1527 1527 1527 1528 1528 1528 1528 1528 1528 1528
1484 1487 1489 1491 1492 1494 1495 1497 1498 1500 1502 1504 1506 1508 1510 1513 1514 1516 1518 1519 1521 1522 1523 1524 1526 1527 1528 1529 1530 1531 1531 1532 1533 1533 1534 1534 1535 1535 1536 1535 1534 1533 1533 1533 1534 1533 1532 1531 1531 1531 1531 1530 1530 1530 1529 1528 1528 1528 1529 1529 1528 1528 1528 1528 1527 1527 1527 1527 1526 1526 1526 1525 1525 1525 1525 1525 1525 1526 1526 1526 1526 1526 1526 1527 1527 1527 1527
1482 1485 1487 1489 1491 1493 1495 1496 1498 1499 1501 1503 1505 1507 1510 1512 1513 1515 1517 1518 1519 1521 1522 1523 1524 1526 1527 1528 1529 1529 1530 1531 1531 1532 1532 1533 1534 1534 1535 1534 1532 1531 1531 1531 1531 1531 1530 1530 1530 1530 1530 1530 1530 1529 1528 1528 1528 1528 1528 1528 1528 1528 1527 1526 1526 1526 1525 1525 1524 1524 1524 1524 1523 1523 1523 1523 1524 1524 1524 1524 1524 1524 1524 1525 1525 1525 1525
1480 1483 1485 1488 1490 1492 1493 1495 1497 1498 1500 1502 1504 1507 1509 1511 1512 1514 1515 1517 1518 1519 1520 1522 1523 1524 1525 1526 1527 1527 1528 1529 1529 1530 1530 1531 1532 1533 1533 1532 1530 1529 1529 1530 1530 1530 1530 1530 1529 1529 1529 1529 1529 1528 1527 1527 1527 1528 1527 1527 1527 1526 1526 1525 1525 1524 1523 1522 1522 1522 1522 1522 1522 1521 1521 1521 1522 1522 1522 1522 1522 1522 1522 1522 1523 1523 1524
1478 1481 1483 1486 1488 1490 1492 1494 1496 1497 1499 1501 1503 1506 1508 1509 1511 1513 1514 1515 1517 1518 1519 1520 1521 1523 1523 1524 1525 1526 1526 1527 1527 1528 1528 1528 1528 1529 1530 1530 1529 1528 1528 1528 1529 1530 1530 1530 1529 1528 1527 1527 1527 1526 1526 1526 1527 1527 1527 1526 1526 1525 1525 1524 1524 1523 1522 1522 1521 1520 1520 1520 1520 1520 1520 1520 1520 1520 1521 1521 1521 1521 1521 1520 1521 1521 1522
1476 1478 1481 1483 1486 1488 1490 1492 1494 1496 1498 1500 1502 1504 1506 1508 1510 1511 1513 1514 1515 1516 1517 1519 1520 1521 1521 1522 1523 1524 1524 1525 1525 1526 1526 1527 1526 1526 1527 1527 1527 1526 1526 1526 1528 1529 1529 1529 1527 1526 1525 1525 1525 1525 1526 1526 1527 1526 1526 1526 1525 1525 1524 1524 1523 1522 1522 1521 1520 1520 1519 1519 1519 1518 1518 1518 1518 1518 1518 1519 1519 1519 1519 1519 1519 1519 1520
1474 1476 1478 1481 1483 1486 1488 1490 1492 1495 1497 1499 1501 1503 1505 1507 1508 1510 1511 1512 1514 1515 1516 1517 1518 1518 1519 1520 1521 1522 1523 1523 1524 1525 1525 1527 1527 1526 1524 1525 1525 1525 1524 1524 1525 1527 1527 1526 1524 1524 1524 1524 1524 1524 1525 1526 1526 1526 1525 1525 1525 1524 1523 1523 1522 1522 1521 1521 1520 1519 1519 1518 1518 1518 1517 1517 1516 1516 1516 1517 1517 1517 1517 1517 1518 1518 1518
1471 1474 1476 1479 1481 1484 1486 1488 1491 1493 1495 1497 1499 1501 1503 1505 1507 1508 1510 1511 1512 1513 1514 1515 1516 1517 1518 1518 1519 1520 1520 1521 1522 1523 1523 1524 1525 1524 1523 1523 1524 1523 1522 1523 1524 1525 1524 1523 1522 1522 1522 1522 1523 1524 1524 1525 1525 1524 1524 1524 1524 1523 1523 1522 1522 1522 1521 1520 1520 1519 1518 1518 1518 1517 1516 1515 1515 1515 1514 1514 1514 1515 1515 1515 1516 1516 1517
1469 1471 1473 1476 1479 1482 1484 1486 1489 1491 1493 1495 1497 1499 1501 1503 1505 1506 1508 1509 1510 1511 1512 1513 1514 1514 1515 1516 1516 1518 1519 1519 1520 1521 1521 1521 1522 1521 1521 1521 1521 1521 1521 1522 1522 1523 1522 1521 1521 1521 1521 1521 1522 1523 1523 1523 1523 1523 1523 1523 1522 1522 1522 1522 1521 1521 1521 1520 1519 1519 1518 1518 1517 1516 1516 1515 1515 1514 1514 1514 1514 1514 1514 1514 1515 1515 1515
1466 1469 1471 1474 1477 1479 1482 1485 1487 1489 1491 1493 1495 1497 1499 1501 1503 1505 1506 1507 1508 1509 1510 1511 1512 1513 1514 1514 1515 1516 1518 1519 1520 1520 1520 1520 1520 1520 1519 1519 1519 1519 1519 1520 1520 1520 1520 1520 1520 1520 1520 1520 1521 1523 1523 1523 1523 1522 1522 1522 1522 1521 1521 1521 1521 1521 1520 1520 1519 1519 1518 1518 1517 1517 1516 1515 1515 1514 1514 1513 1513 1513 1513 1513 1514 1514 1514
1465 1467 1469 1472 1474 1477 1480 1483 1485 1487 1489 1491 1493 1495 1497 1499 1501 1503 1504 1506 1507 1508 1509 1510 1510 1511 1512 1512 1514 1515 1516 1517 1518 1519 1519 1519 1519 1519 1519 1518 1518 1518 1518 1519 1520 1519 1519 1519 1519 1519 1519 1520 1521 1522 1522 1522 1522 1521 1521 1521 1521 1521 1521 1520 1520 1520 1520 1520 1519 1519 1518 1518 1517 1516 1516 1515 1515 1514 1513 1513 1513 1513 1513 1513 1513 1512 1513
1463 1465 1467 1470 1472 1475 1477 1480 1482 1484 1487 1489 1491 1493 1496 1498 1500 1501 1503 1504 1505 1507 1508 1509 1509 1510 1511 1512 1513 1514 1514 1514 1515 1516 1517 1517 1517 1518 1518 1517 1517 1517 1517 1518 1519 1519 1518 1518 1518 1518 1518 1519 1520 1521 1521 1521 1521 1520 1520 1520 1520 1520 1520 1519 1518 1519 1519 1519 1518 1518 1518 1517 1517 1516 1515 1515 1515 1514 1514 1513 1513 1512 1512 1512 1512 1512 1512
1461 1463 1466 1468 1470 1473 1476 1479 1480 1482 1485 1487 1490 1492 1495 1497 1498 1500 1501 1503 1504 1506 1507 1508 1509 1509 1510 1511 1512 1512 1513 1513 1514 1515 1516 1516 1516 1517 1517 1517 1517 1517 1517 1517 1518 1518 1518 1518 1517 1517 1517 1518 1519 1519 1519 1519 1519 1519 1519 1519 1519 1519 1519 1518 1518 1519 1518 1517 1517 1517 1517 1516 1516 1515 1515 1515 1514 1514 1514 1513 1513 1512 1512 1512 1512 1512 1512
1461 1463 1466 1468 1471 1473 1476 1478 1480 1482 1484 1487 1489 1491 1494 1495 1497 1499 1500 1502 1503 1505 1506 1507 1508 1508 1510 1511 1511 1511 1512 1512 1513 1514 1515 1515 1516 1516 1516 1516 1516 1516 1517 1517 1517 1517 1517 1517 1516 1516 1516 1517 1518 1518 1517 1517 1518 1519 1518 1518 1518 1518 1518 1518 1518 1518 1518 1517 1516 1516 1516 1516 1515 1514 1514 1514 1514 1513 1513 1513 1512 1512 1511 1511 1511 1510 1510